| time (UTC) | temp F | wind direction | speed knots | gust knots | rain 1hr in | rain 24hr in | rain mn in | humidity % | barometer mb |
| 20260507033734 | 66 | 59 | 2.6 | 4.3 | 0.00 | 0.00 | 0.00 | 61 | |
| 20260507033240 | 66 | 335 | 1.7 | 5.2 | 0.00 | 0.00 | 0.00 | 60 | |
| 20260507032740 | 66 | 341 | 1.7 | 5.2 | 0.00 | 0.00 | 0.00 | 60 | |
| 20260507032245 | 66 | 314 | 2.6 | 4.3 | 0.00 | 0.00 | 0.00 | 60 | |
| 20260507031748 | 66 | 334 | 1.7 | 3.5 | 0.00 | 0.00 | 0.00 | 59 | |
| 20260507031233 | 67 | 330 | 1.7 | 4.3 | 0.00 | 0.00 | 0.00 | 59 | |
| 20260507030755 | 67 | 346 | 2.6 | 6.1 | 0.00 | 0.00 | 0.00 | 59 | |
| 20260507030238 | 67 | 346 | 3.5 | 6.1 | 0.00 | 0.00 | 0.00 | 58 | |
| 20260507025741 | 67 | 326 | 2.6 | 5.2 | 0.00 | 0.00 | 0.00 | 58 | |
| 20260507025232 | 67 | 325 | 3.5 | 5.2 | 0.00 | 0.00 | 0.00 | 57 | |
| 20260507024734 | 68 | 323 | 2.6 | 5.2 | 0.00 | 0.00 | 0.00 | 57 | |
| 20260507024252 | 68 | 328 | 1.7 | 3.5 | 0.00 | 0.00 | 0.00 | 57 | |
| 20260507023733 | 69 | 311 | 1.7 | 3.5 | 0.00 | 0.00 | 0.00 | 56 | |
| 20260507023230 | 69 | 339 | 0.9 | 5.2 | 0.00 | 0.00 | 0.00 | 56 | |
| 20260507022753 | 69 | 322 | 3.5 | 5.2 | 0.00 | 0.00 | 0.00 | 55 | |
| 20260507022235 | 70 | 305 | 1.7 | 4.3 | 0.00 | 0.00 | 0.00 | 55 | |
| 20260507021737 | 70 | 324 | 2.6 | 4.3 | 0.00 | 0.00 | 0.00 | 54 | |
| 20260507021236 | 71 | 309 | 1.7 | 4.3 | 0.00 | 0.00 | 0.00 | 54 | |
| 20260507020737 | 71 | 307 | 1.7 | 6.1 | 0.00 | 0.00 | 0.00 | 54 | |
| 20260507020250 | 71 | 306 | 3.5 | 6.1 | 0.00 | 0.00 | 0.00 | 54 | |
| 20260507015754 | 71 | 310 | 3.5 | 7.0 | 0.00 | 0.00 | 0.00 | 54 | |
| 20260507015235 | 71 | 306 | 3.5 | 7.0 | 0.00 | 0.00 | 0.00 | 53 | |
| 20260507014755 | 72 | 311 | 2.6 | 7.0 | 0.00 | 0.00 | 0.00 | 53 | |
| 20260507014235 | 72 | 266 | 2.6 | 7.8 | 0.00 | 0.00 | 0.00 | 52 | |
| 20260507013731 | 72 | 321 | 4.3 | 7.8 | 0.00 | 0.00 | 0.00 | 52 | |
| 20260507013248 | 73 | 284 | 4.3 | 7.0 | 0.00 | 0.00 | 0.00 | 51 | |
| 20260507012749 | 74 | 268 | 1.7 | 4.3 | 0.00 | 0.00 | 0.00 | 51 | |
| 20260507012230 | 74 | 311 | 1.7 | 6.1 | 0.00 | 0.00 | 0.00 | 50 | |
| 20260507011733 | 74 | 284 | 2.6 | 7.8 | 0.00 | 0.00 | 0.00 | 50 | |
| 20260507011238 | 74 | 321 | 3.5 | 7.8 | 0.00 | 0.00 | 0.00 | 49 | |
| 20260507010742 | 75 | 282 | 2.6 | 8.7 | 0.00 | 0.00 | 0.00 | 49 | |
| 20260507010240 | 75 | 285 | 4.3 | 8.7 | 0.00 | 0.00 | 0.00 | 49 | |
| 20260507005744 | 76 | 320 | 5.2 | 8.7 | 0.00 | 0.00 | 0.00 | 48 | |
| 20260507005250 | 76 | 293 | 3.5 | 8.7 | 0.00 | 0.00 | 0.00 | 48 | |
| 20260507004732 | 76 | 293 | 4.3 | 7.8 | 0.00 | 0.00 | 0.00 | 47 | |
| 20260507004238 | 76 | 291 | 1.7 | 7.8 | 0.00 | 0.00 | 0.00 | 48 | |
| 20260507003800 | 77 | 314 | 5.2 | 8.7 | 0.00 | 0.00 | 0.00 | 47 | |
| 20260507003230 | 76 | 275 | 4.3 | 9.6 | 0.00 | 0.00 | 0.00 | 47 | |
| 20260507002749 | 76 | 285 | 5.2 | 9.6 | 0.00 | 0.00 | 0.00 | 47 | |
| 20260507002251 | 76 | 295 | 3.5 | 7.8 | 0.00 | 0.00 | 0.00 | 47 | |
| 20260507001751 | 77 | 310 | 3.5 | 7.8 | 0.00 | 0.00 | 0.00 | 46 | |
| 20260507001254 | 78 | 317 | 5.2 | 7.8 | 0.00 | 0.00 | 0.00 | 45 | |
| 20260507000735 | 77 | 276 | 1.7 | 9.6 | 0.00 | 0.00 | 0.00 | 46 | |
| 20260507000234 | 78 | 320 | 5.2 | 9.6 | 0.00 | 0.00 | 0.00 | 45 | |
| 20260506235730 | 78 | 306 | 2.6 | 8.7 | 0.00 | 0.00 | 0.00 | 44 | |
| 20260506235233 | 78 | 287 | 1.7 | 11.3 | 0.00 | 0.00 | 0.00 | 45 | |
| 20260506234754 | 78 | 354 | 6.1 | 11.3 | 0.00 | 0.00 | 0.00 | 44 | |
| 20260506234257 | 79 | 281 | 3.5 | 7.0 | 0.00 | 0.00 | 0.00 | 44 | |
| 20260506233738 | 78 | 244 | 2.6 | 10.4 | 0.00 | 0.00 | 0.00 | 44 | |
| 20260506233312 | 79 | 314 | 6.1 | 10.4 | 0.00 | 0.00 | 0.00 | 43 | |
| 20260506232730 | 80 | 248 | 5.2 | 7.8 | 0.00 | 0.00 | 0.00 | 42 | |
| 20260506232235 | 80 | 318 | 2.6 | 7.0 | 0.00 | 0.00 | 0.00 | 42 | |
| 20260506231738 | 79 | 303 | 1.7 | 9.6 | 0.00 | 0.00 | 0.00 | 43 | |
| 20260506231249 | 80 | 243 | 4.3 | 9.6 | 0.00 | 0.00 | 0.00 | 43 | |
| 20260506230730 | 81 | 288 | 2.6 | 7.8 | 0.00 | 0.00 | 0.00 | 42 | |
| 20260506230249 | 81 | 325 | 1.7 | 8.7 | 0.00 | 0.00 | 0.00 | 42 | |
| 20260506225749 | 81 | 264 | 5.2 | 8.7 | 0.00 | 0.00 | 0.00 | 42 | |
| 20260506225252 | 81 | 272 | 3.5 | 8.7 | 0.00 | 0.00 | 0.00 | 42 | |
| 20260506224815 | 80 | 312 | 5.2 | 8.7 | 0.00 | 0.00 | 0.00 | 42 | |
| 20260506223756 | 79 | 293 | 5.2 | 11.3 | 0.00 | 0.00 | 0.00 | 43 | |
| 20260506223235 | 80 | 310 | 5.2 | 12.2 | 0.00 | 0.00 | 0.00 | 43 | |
| 20260506222756 | 80 | 326 | 5.2 | 12.2 | 0.00 | 0.00 | 0.00 | 42 | |
| 20260506222233 | 81 | 337 | 3.5 | 8.7 | 0.00 | 0.00 | 0.00 | 42 | |
| 20260506221733 | 83 | 310 | 5.2 | 8.7 | 0.00 | 0.00 | 0.00 | 40 | |
| 20260506221236 | 82 | 249 | 2.6 | 7.8 | 0.00 | 0.00 | 0.00 | 41 | |
| 20260506220737 | 82 | 289 | 1.7 | 9.6 | 0.00 | 0.00 | 0.00 | 40 | |
| 20260506220255 | 82 | 295 | 4.3 | 9.6 | 0.00 | 0.00 | 0.00 | 40 | |
| 20260506215754 | 82 | 291 | 3.5 | 7.0 | 0.00 | 0.00 | 0.00 | 40 | |
| 20260506215230 | 81 | 256 | 3.5 | 8.7 | 0.00 | 0.00 | 0.00 | 41 | |
| 20260506214750 | 81 | 326 | 4.3 | 8.7 | 0.00 | 0.00 | 0.00 | 40 | |
| 20260506214231 | 81 | 338 | 3.5 | 7.0 | 0.00 | 0.00 | 0.00 | 40 | |
| 20260506213733 | 81 | 354 | 3.5 | 7.0 | 0.00 | 0.00 | 0.00 | 40 | |
| 20260506213253 | 80 | 308 | 1.7 | 7.0 | 0.00 | 0.00 | 0.00 | 41 | |
| 20260506212752 | 79 | 265 | 2.6 | 7.0 | 0.00 | 0.00 | 0.00 | 41 | |
| 20260506212253 | 79 | 104 | 2.6 | 4.3 | 0.00 | 0.00 | 0.00 | 40 | |
| 20260506211754 | 78 | 145 | 1.7 | 2.6 | 0.00 | 0.00 | 0.00 | 40 | |
| 20260506211253 | 78 | 158 | 0.9 | 6.1 | 0.00 | 0.00 | 0.00 | 40 | |
| 20260506210735 | 78 | 139 | 3.5 | 7.8 | 0.00 | 0.00 | 0.00 | 39 | |
| 20260506210233 | 79 | 91 | 3.5 | 7.0 | 0.00 | 0.00 | 0.00 | 39 | |
| 20260506205734 | 79 | 231 | 3.5 | 6.1 | 0.00 | 0.00 | 0.00 | 39 | |
| 20260506205237 | 79 | 283 | 3.5 | 6.1 | 0.00 | 0.00 | 0.00 | 40 | |
| 20260506204737 | 78 | 184 | 2.6 | 5.2 | 0.00 | 0.00 | 0.00 | 40 | |
| 20260506204259 | 78 | 122 | 1.7 | 5.2 | 0.00 | 0.00 | 0.00 | 40 | |
| 20260506203757 | 78 | 125 | 1.7 | 5.2 | 0.00 | 0.00 | 0.00 | 40 | |
| 20260506203233 | 77 | 23 | 2.6 | 6.1 | 0.00 | 0.00 | 0.00 | 40 | |
| 20260506202754 | 77 | 130 | 1.7 | 7.8 | 0.00 | 0.00 | 0.00 | 42 | |
| 20260506202233 | 76 | 166 | 4.3 | 7.8 | 0.00 | 0.00 | 0.00 | 43 | |
| 20260506201733 | 76 | 97 | 3.5 | 7.0 | 0.00 | 0.00 | 0.00 | 42 | |
| 20260506201233 | 75 | 98 | 3.5 | 7.0 | 0.00 | 0.00 | 0.00 | 42 | |
| 20260506200807 | 75 | 85 | 2.6 | 6.1 | 0.00 | 0.00 | 0.00 | 42 | |
| 20260506200252 | 75 | 245 | 1.7 | 8.7 | 0.00 | 0.00 | 0.00 | 43 | |
| 20260506195731 | 74 | 155 | 2.6 | 8.7 | 0.00 | 0.00 | 0.00 | 43 | |
| 20260506195234 | 74 | 106 | 4.3 | 7.8 | 0.00 | 0.00 | 0.00 | 43 | |
| 20260506194736 | 74 | 88 | 4.3 | 7.8 | 0.00 | 0.00 | 0.00 | 44 | |
| 20260506194240 | 74 | 108 | 5.2 | 8.7 | 0.00 | 0.00 | 0.00 | 43 | |
| 20260506193738 | 74 | 91 | 1.7 | 7.0 | 0.00 | 0.00 | 0.00 | 43 | |
| 20260506193255 | 74 | 75 | 2.6 | 7.0 | 0.00 | 0.00 | 0.00 | 44 | |
| 20260506192756 | 74 | 136 | 2.6 | 7.0 | 0.00 | 0.00 | 0.00 | 43 | |
| 20260506192237 | 75 | 91 | 2.6 | 6.1 | 0.00 | 0.00 | 0.00 | 42 | |
| 20260506191736 | 75 | 271 | 2.6 | 6.1 | 0.00 | 0.00 | 0.00 | 45 | |
| 20260506191241 | 73 | 323 | 0.9 | 4.3 | 0.00 | 0.00 | 0.00 | 45 | |
| 20260506190757 | 73 | 4 | 2.6 | 4.3 | 0.00 | 0.00 | 0.00 | 44 | |
| 20260506190239 | 74 | 60 | 2.6 | 5.2 | 0.00 | 0.00 | 0.00 | 44 | |
| 20260506185736 | 73 | 288 | 1.7 | 7.0 | 0.00 | 0.00 | 0.00 | 45 | |
| 20260506185243 | 72 | 162 | 3.5 | 7.0 | 0.00 | 0.00 | 0.00 | 47 | |
| 20260506184742 | 72 | 119 | 3.5 | 7.0 | 0.00 | 0.00 | 0.00 | 47 | |
| 20260506184241 | 71 | 292 | 1.7 | 5.2 | 0.00 | 0.00 | 0.00 | 47 | |
| 20260506183738 | 71 | 60 | 0.9 | 5.2 | 0.00 | 0.00 | 0.00 | 47 | |
| 20260506183238 | 71 | 142 | 1.7 | 4.3 | 0.00 | 0.00 | 0.00 | 49 | |
| 20260506182759 | 70 | 51 | 1.7 | 8.7 | 0.00 | 0.00 | 0.00 | 49 | |
| 20260506182247 | 70 | 93 | 4.3 | 8.7 | 0.00 | 0.00 | 0.00 | 48 | |
| 20260506181808 | 70 | 111 | 4.3 | 7.8 | 0.00 | 0.00 | 0.00 | 48 | |
| 20260506181230 | 70 | 142 | 0.9 | 4.3 | 0.00 | 0.00 | 0.00 | 49 | |
| 20260506180732 | 69 | 148 | 2.6 | 4.3 | 0.00 | 0.00 | 0.00 | 50 | |
| 20260506180239 | 69 | 149 | 1.7 | 5.2 | 0.00 | 0.00 | 0.00 | 49 | |
| 20260506175740 | 69 | 240 | 2.6 | 5.2 | 0.00 | 0.00 | 0.00 | 49 | |
| 20260506175246 | 68 | 87 | 1.7 | 4.3 | 0.00 | 0.00 | 0.00 | 50 | |
| 20260506174748 | 68 | 135 | 1.7 | 5.2 | 0.00 | 0.00 | 0.00 | 50 | |
| 20260506174255 | 68 | 189 | 2.6 | 5.2 | 0.00 | 0.00 | 0.00 | 51 | |
| 20260506173752 | 67 | 323 | 1.7 | 5.2 | 0.00 | 0.00 | 0.00 | 51 | |
| 20260506173309 | 67 | 179 | 1.7 | 4.3 | 0.00 | 0.00 | 0.00 | 52 | |
| 20260506172731 | 67 | 217 | 1.7 | 4.3 | 0.00 | 0.00 | 0.00 | 51 | |
| 20260506172300 | 67 | 121 | 1.7 | 5.2 | 0.00 | 0.00 | 0.00 | 52 | |
| 20260506171740 | 67 | 208 | 3.5 | 5.2 | 0.00 | 0.00 | 0.00 | 52 | |
| 20260506171245 | 67 | 181 | 0.9 | 2.6 | 0.00 | 0.00 | 0.00 | 53 | |
| 20260506170740 | 66 | 104 | 1.7 | 2.6 | 0.00 | 0.00 | 0.00 | 54 | |
| 20260506170312 | 65 | 44 | 0.9 | 5.2 | 0.00 | 0.00 | 0.00 | 55 | |
| 20260506165752 | 65 | 268 | 1.7 | 5.2 | 0.00 | 0.00 | 0.00 | 55 | |
| 20260506165230 | 65 | 220 | 1.7 | 3.5 | 0.00 | 0.00 | 0.00 | 55 | |
| 20260506164731 | 65 | 252 | 2.6 | 3.5 | 0.00 | 0.00 | 0.00 | 57 | |
| 20260506164255 | 64 | 239 | 1.7 | 4.3 | 0.00 | 0.00 | 0.00 | 57 | |
| 20260506163735 | 64 | 151 | 0.9 | 3.5 | 0.00 | 0.00 | 0.00 | 59 | |
| 20260506163249 | 64 | 216 | 0.9 | 4.3 | 0.00 | 0.00 | 0.00 | 60 | |
| 20260506162750 | 64 | 220 | 2.6 | 4.3 | 0.00 | 0.00 | 0.00 | 60 | |
| 20260506162232 | 63 | 73 | 1.7 | 5.2 | 0.00 | 0.00 | 0.00 | 61 | |
| 20260506161731 | 63 | 81 | 2.6 | 5.2 | 0.00 | 0.00 | 0.00 | 62 | |
| 20260506161254 | 63 | 81 | 1.7 | 5.2 | 0.00 | 0.00 | 0.00 | 62 | |
| 20260506160755 | 63 | 265 | 1.7 | 5.2 | 0.00 | 0.00 | 0.00 | 63 | |
| 20260506160250 | 62 | 124 | 1.7 | 3.5 | 0.00 | 0.00 | 0.00 | 63 | |
| 20260506155731 | 62 | 143 | 1.7 | 5.2 | 0.00 | 0.00 | 0.00 | 63 | |
| 20260506155233 | 61 | 39 | 1.7 | 5.2 | 0.00 | 0.00 | 0.00 | 65 | |
| 20260506154754 | 61 | 131 | 1.7 | 3.5 | 0.00 | 0.00 | 0.00 | 65 | |
| 20260506154255 | 61 | 246 | 1.7 | 3.5 | 0.00 | 0.00 | 0.00 | 65 | |
| 20260506153755 | 61 | 172 | 0.9 | 3.5 | 0.00 | 0.00 | 0.00 | 65 | |
| 20260506153252 | 61 | 221 | 0.9 | 2.6 | 0.00 | 0.00 | 0.00 | 66 | |
| 20260506152750 | 60 | 150 | 0.9 | 3.5 | 0.00 | 0.00 | 0.00 | 66 | |
| 20260506152235 | 60 | 52 | 0.9 | 2.6 | 0.00 | 0.00 | 0.00 | 67 | |
| 20260506151735 | 59 | 79 | 1.7 | 3.5 | 0.00 | 0.00 | 0.00 | 67 | |
| 20260506151238 | 59 | 70 | 2.6 | 3.5 | 0.00 | 0.00 | 0.00 | 67 | |
| 20260506150738 | 59 | 116 | 0.9 | 4.3 | 0.00 | 0.00 | 0.00 | 68 | |
| 20260506150240 | 58 | 98 | 0.9 | 2.6 | 0.00 | 0.00 | 0.00 | 69 | |
| 20260506145740 | 59 | 124 | 1.7 | 2.6 | 0.00 | 0.00 | 0.00 | 68 | |
| 20260506145318 | 59 | 104 | 0.9 | 1.7 | 0.00 | 0.00 | 0.00 | 70 | |
| 20260506144731 | 58 | 97 | 0.0 | 0.0 | 0.00 | 0.00 | 0.00 | 71 | |
| 20260506144235 | 58 | 97 | 0.0 | 0.0 | 0.00 | 0.00 | 0.00 | 73 | |
| 20260506143814 | 57 | 108 | 0.0 | 0.0 | 0.00 | 0.00 | 0.00 | 73 | |
| 20260506143230 | 57 | 87 | 0.0 | 0.0 | 0.00 | 0.00 | 0.00 | 75 | |
| 20260506142729 | 57 | 89 | 0.0 | 0.0 | 0.00 | 0.00 | 0.00 | 76 | |
| 20260506142229 | 56 | 102 | 0.0 | 0.0 | 0.00 | 0.00 | 0.00 | 78 | |
| 20260506141730 | 55 | 196 | 0.0 | 0.0 | 0.00 | 0.00 | 0.00 | 80 | |
| 20260506141232 | 54 | 197 | 0.0 | 0.0 | 0.00 | 0.00 | 0.00 | 81 | |
| 20260506140753 | 53 | 314 | 0.0 | 0.0 | 0.00 | 0.00 | 0.00 | 81 | |
| 20260506140316 | 52 | 314 | 0.0 | 0.0 | 0.00 | 0.00 | 0.00 | 82 | |
| 20260506135817 | 52 | 331 | 0.0 | 0.0 | 0.00 | 0.00 | 0.00 | 82 | |
| 20260506135258 | 51 | 327 | 0.0 | 0.9 | 0.00 | 0.00 | 0.00 | 82 | |
| 20260506134737 | 51 | 327 | 0.0 | 0.9 | 0.00 | 0.00 | 0.00 | 83 | |
| 20260506134230 | 50 | 327 | 0.0 | 0.9 | 0.00 | 0.00 | 0.00 | 83 | |
| 20260506133731 | 50 | 327 | 0.0 | 0.0 | 0.00 | 0.00 | 0.00 | 86 | |
| 20260506133250 | 50 | 327 | 0.0 | 0.0 | 0.00 | 0.00 | 0.00 | 83 | |
| 20260506132732 | 49 | 327 | 0.0 | 0.9 | 0.00 | 0.00 | 0.00 | 83 | |
| 20260506132308 | 49 | 327 | 0.0 | 2.6 | 0.00 | 0.00 | 0.00 | 82 | |
| 20260506131748 | 49 | 331 | 0.9 | 2.6 | 0.00 | 0.00 | 0.00 | 82 | |
| 20260506131248 | 49 | 336 | 0.9 | 1.7 | 0.00 | 0.00 | 0.00 | 82 | |
| 20260506130747 | 49 | 315 | 0.0 | 0.0 | 0.00 | 0.00 | 0.00 | 82 | |
| 20260506130314 | 49 | 315 | 0.0 | 0.0 | 0.00 | 0.00 | 0.00 | 82 | |
| 20260506125752 | 49 | 315 | 0.0 | 0.0 | 0.00 | 0.00 | 0.00 | 82 | |
| 20260506125236 | 49 | 315 | 0.0 | 0.0 | 0.00 | 0.00 | 0.00 | 82 | |
| 20260506124736 | 49 | 315 | 0.0 | 0.0 | 0.00 | 0.00 | 0.00 | 82 | |
| 20260506124237 | 49 | 315 | 0.0 | 0.0 | 0.00 | 0.00 | 0.00 | 82 | |
| 20260506123736 | 49 | 315 | 0.0 | 0.0 | 0.00 | 0.00 | 0.00 | 81 | |
| 20260506123251 | 49 | 315 | 0.0 | 0.0 | 0.00 | 0.00 | 0.00 | 81 | |
| 20260506122751 | 49 | 315 | 0.0 | 0.0 | 0.00 | 0.00 | 0.00 | 81 | |
| 20260506122233 | 49 | 315 | 0.0 | 0.0 | 0.00 | 0.00 | 0.00 | 81 | |
| 20260506121732 | 50 | 315 | 0.0 | 0.0 | 0.00 | 0.00 | 0.00 | 81 | |
| 20260506121232 | 50 | 315 | 0.0 | 0.0 | 0.00 | 0.00 | 0.00 | 81 | |
| 20260506120732 | 50 | 315 | 0.0 | 0.0 | 0.00 | 0.00 | 0.00 | 81 | |
| 20260506120251 | 50 | 315 | 0.0 | 0.0 | 0.00 | 0.00 | 0.00 | 81 | |
| 20260506115732 | 50 | 315 | 0.0 | 0.0 | 0.00 | 0.00 | 0.00 | 80 | |
| 20260506115245 | 50 | 315 | 0.0 | 0.0 | 0.00 | 0.00 | 0.00 | 80 | |
| 20260506114748 | 50 | 315 | 0.0 | 0.0 | 0.00 | 0.00 | 0.00 | 80 | |
| 20260506114233 | 50 | 315 | 0.0 | 0.0 | 0.00 | 0.00 | 0.00 | 80 | |
| 20260506113734 | 50 | 315 | 0.0 | 0.0 | 0.00 | 0.00 | 0.00 | 80 | |
| 20260506113258 | 50 | 315 | 0.0 | 0.0 | 0.00 | 0.00 | 0.00 | 80 | |
| 20260506112737 | 51 | 315 | 0.0 | 0.0 | 0.00 | 0.00 | 0.00 | 80 | |
| 20260506112259 | 51 | 315 | 0.0 | 0.0 | 0.00 | 0.00 | 0.00 | 79 | |
| 20260506111739 | 51 | 315 | 0.0 | 0.0 | 0.00 | 0.00 | 0.00 | 79 | |
| 20260506111229 | 51 | 315 | 0.0 | 0.0 | 0.00 | 0.00 | 0.00 | 79 | |
| 20260506110732 | 51 | 315 | 0.0 | 0.0 | 0.00 | 0.00 | 0.00 | 79 | |
| 20260506110232 | 51 | 315 | 0.0 | 0.0 | 0.00 | 0.00 | 0.00 | 79 | |
| 20260506105735 | 51 | 315 | 0.0 | 1.7 | 0.00 | 0.00 | 0.00 | 79 | |
| 20260506105258 | 52 | 315 | 0.0 | 2.6 | 0.00 | 0.00 | 0.00 | 79 | |
| 20260506104738 | 52 | 328 | 0.9 | 2.6 | 0.00 | 0.00 | 0.00 | 79 | |
| 20260506104229 | 52 | 334 | 1.7 | 2.6 | 0.00 | 0.00 | 0.00 | 79 | |
| 20260506103752 | 52 | 332 | 0.0 | 2.6 | 0.00 | 0.00 | 0.00 | 79 | |
| 20260506103249 | 52 | 330 | 0.9 | 2.6 | 0.00 | 0.00 | 0.00 | 79 | |
| 20260506102751 | 52 | 324 | 0.9 | 1.7 | 0.00 | 0.00 | 0.00 | 79 | |
| 20260506102235 | 52 | 329 | 0.0 | 3.5 | 0.00 | 0.00 | 0.00 | 79 | |
| 20260506101735 | 52 | 322 | 1.7 | 3.5 | 0.00 | 0.00 | 0.00 | 79 | |
| 20260506101237 | 52 | 325 | 0.9 | 3.5 | 0.00 | 0.00 | 0.00 | 79 | |
| 20260506100757 | 52 | 338 | 1.7 | 4.3 | 0.00 | 0.00 | 0.00 | 79 | |
| 20260506100233 | 52 | 327 | 2.6 | 4.3 | 0.00 | 0.00 | 0.00 | 79 | |
| 20260506095755 | 52 | 341 | 2.6 | 4.3 | 0.00 | 0.00 | 0.00 | 79 | |
| 20260506095231 | 52 | 326 | 1.7 | 2.6 | 0.00 | 0.00 | 0.00 | 79 | |
| 20260506094732 | 52 | 326 | 1.7 | 2.6 | 0.00 | 0.00 | 0.00 | 79 | |
| 20260506094234 | 52 | 332 | 1.7 | 2.6 | 0.00 | 0.00 | 0.00 | 79 | |
| 20260506093734 | 52 | 333 | 0.9 | 2.6 | 0.00 | 0.00 | 0.00 | 79 | |
| 20260506093235 | 52 | 326 | 0.9 | 2.6 | 0.00 | 0.00 | 0.00 | 79 | |
| 20260506092735 | 52 | 329 | 1.7 | 2.6 | 0.00 | 0.00 | 0.00 | 79 | |
| 20260506092243 | 52 | 322 | 0.9 | 3.5 | 0.00 | 0.00 | 0.00 | 79 | |
| 20260506091752 | 52 | 334 | 2.6 | 3.5 | 0.00 | 0.00 | 0.00 | 79 | |
| 20260506091236 | 51 | 325 | 0.0 | 0.0 | 0.00 | 0.00 | 0.00 | 79 | |
| 20260506090737 | 51 | 314 | 0.0 | 0.0 | 0.00 | 0.00 | 0.00 | 78 | |
| 20260506090240 | 51 | 314 | 0.0 | 0.0 | 0.00 | 0.00 | 0.00 | 78 | |
| 20260506085756 | 52 | 314 | 0.0 | 0.0 | 0.00 | 0.00 | 0.00 | 78 | |
| 20260506085234 | 52 | 314 | 0.0 | 0.0 | 0.00 | 0.00 | 0.00 | 78 | |
| 20260506084754 | 52 | 314 | 0.0 | 0.0 | 0.00 | 0.00 | 0.00 | 78 | |
| 20260506084235 | 52 | 314 | 0.0 | 0.0 | 0.00 | 0.00 | 0.00 | 77 | |
| 20260506083753 | 52 | 314 | 0.0 | 0.0 | 0.00 | 0.00 | 0.00 | 77 | |
| 20260506083314 | 52 | 314 | 0.0 | 0.0 | 0.00 | 0.00 | 0.00 | 77 | |
| 20260506082812 | 52 | 314 | 0.0 | 0.9 | 0.00 | 0.00 | 0.00 | 77 | |
| 20260506082232 | 52 | 312 | 0.0 | 1.7 | 0.00 | 0.00 | 0.00 | 77 | |
| 20260506081733 | 52 | 318 | 0.9 | 2.6 | 0.00 | 0.00 | 0.00 | 77 | |
| 20260506081236 | 52 | 330 | 0.0 | 0.0 | 0.00 | 0.00 | 0.00 | 76 | |
| 20260506080736 | 52 | 321 | 0.0 | 0.0 | 0.00 | 0.00 | 0.00 | 76 | |
| 20260506080254 | 53 | 321 | 0.0 | 0.0 | 0.00 | 0.00 | 0.00 | 76 | |
| 20260506073250 | 53 | 332 | 0.0 | 0.0 | 0.00 | 0.00 | 0.00 | 75 | |
| 20260506072808 | 53 | 332 | 0.0 | 1.7 | 0.00 | 0.00 | 0.00 | 75 | |
| 20260506072230 | 53 | 332 | 0.0 | 1.7 | 0.00 | 0.00 | 0.00 | 75 | |
| 20260506071731 | 53 | 334 | 0.0 | 0.9 | 0.00 | 0.00 | 0.00 | 75 | |
| 20260506071234 | 53 | 334 | 0.0 | 1.7 | 0.00 | 0.00 | 0.00 | 74 | |
| 20260506070733 | 53 | 334 | 0.0 | 1.7 | 0.00 | 0.00 | 0.00 | 74 | |
| 20260506070251 | 54 | 333 | 0.9 | 2.6 | 0.00 | 0.00 | 0.00 | 74 | |
| 20260506062307 | 54 | 323 | 0.0 | 1.7 | 0.00 | 0.00 | 0.00 | 72 | |
| 20260506061750 | 54 | 323 | 0.9 | 1.7 | 0.00 | 0.00 | 0.00 | 71 | |
| 20260506061233 | 54 | 323 | 0.0 | 1.7 | 0.00 | 0.00 | 0.00 | 71 | |
| 20260506060734 | 54 | 323 | 0.9 | 1.7 | 0.00 | 0.00 | 0.00 | 71 | |
| 20260506060230 | 55 | 331 | 0.0 | 2.6 | 0.00 | 0.00 | 0.00 | 71 | |
| 20260506051240 | 55 | 316 | 0.0 | 0.0 | 0.00 | 0.00 | 0.00 | 69 | |
| 20260506050739 | 56 | 316 | 0.0 | 0.0 | 0.00 | 0.00 | 0.00 | 69 | |
| 20260506050239 | 56 | 337 | 0.0 | 0.0 | 0.00 | 0.00 | 0.00 | 69 | |
| 20260506044728 | 57 | 332 | 0.0 | 0.9 | 0.00 | 0.00 | 0.00 | 70 | |
| 20260506044231 | 57 | 343 | 0.0 | 0.9 | 0.00 | 0.00 | 0.00 | 70 | |
| 20260506043735 | 57 | 347 | 0.0 | 2.6 | 0.00 | 0.00 | 0.00 | 70 | |
| 20260506043309 | 58 | 337 | 1.7 | 2.6 | 0.00 | 0.00 | 0.00 | 70 | |
| 20260506042731 | 58 | 310 | 0.9 | 1.7 | 0.00 | 0.00 | 0.00 | 70 | |
| 20260506042250 | 58 | 305 | 0.0 | 0.0 | 0.00 | 0.00 | 0.00 | 69 | |
| 20260506041732 | 58 | 263 | 0.0 | 0.0 | 0.00 | 0.00 | 0.00 | 69 | |
| 20260506041235 | 58 | 257 | 0.0 | 0.0 | 0.00 | 0.00 | 0.00 | 68 | |
| 20260506040755 | 58 | 256 | 0.0 | 0.0 | 0.00 | 0.00 | 0.00 | 68 | |
| 20260506040232 | 59 | 257 | 0.0 | 0.0 | 0.00 | 0.00 | 0.00 | 68 | |
| 20260506035733 | 59 | 256 | 0.0 | 0.0 | 0.00 | 0.00 | 0.00 | 67 | |
| 20260506035231 | 59 | 274 | 0.0 | 0.0 | 0.00 | 0.00 | 0.00 | 67 | |
| 20260506034732 | 59 | 274 | 0.0 | 0.0 | 0.00 | 0.00 | 0.00 | 67 | |
| 20260506034256 | 59 | 274 | 0.0 | 0.0 | 0.00 | 0.00 | 0.00 | 66 |